Regional Weather Roundup
Issued by NWS Little Rock, AR

Home | Current Version | Previous Version | Graphics & Text | Print | Product List | Glossary On
Versions: 1 2 3 4 5 6 7 8 9 10 11 12 13 14 15 16 17 18 19 20 21 22 23 24 25 26 27 28 29 30 31 32 33 34 35 36 37 38 39 40 41 42 43 44 45 46 47 48 49 50
000
ASUS44 KLZK 011805
RWRLZK

WEATHER ROUNDUP FOR ARKANSAS
NATIONAL WEATHER SERVICE LITTLE ROCK AR
100 PM CDT TUE SEP 01 2015

NOTE: "FAIR" INDICATES FEW OR NO CLOUDS BELOW 12,000 FEET WITH NO
SIGNIFICANT WEATHER AND/OR OBSTRUCTIONS TO VISIBILITY.

ARZ001-003-010-029-011900-
NORTHWEST ARKANSAS

CITY           SKY/WX    TMP DP  RH WIND       PRES   REMARKS
FAYETTEVILLE   MOSUNNY   84  68  58 S12       30.10F HX  87
6HR MIN TEMP:  64; 6HR MAX TEMP:  84;

FORT SMITH     MOSUNNY   88  65  46 CALM      30.05F HX  90
6HR MIN TEMP:  70; 6HR MAX TEMP:  88;

BENTONVILLE    MOSUNNY   84  64  51 S13       30.11F HX  86
6HR MIN TEMP:  68; 6HR MAX TEMP:  86;

ROGERS         MOSUNNY   85  67  54 S9        30.11F HX  87
6HR MIN TEMP:  69; 6HR MAX TEMP:  86;

SILOAM SPGS    MOSUNNY   86  64  48 S13       30.08F HX  87
6HR MIN TEMP:  66; 6HR MAX TEMP:  86;

HIGHFILL       SUNNY     86  68  54 S13G18    30.10F HX  89
6HR MIN TEMP:  67; 6HR MAX TEMP:  86;

SPRINGDALE     MOSUNNY   84  64  51 SE10G17   30.12F HX  86
$$

ARZ004-005-016-011900-
NORTH CENTRAL ARKANSAS

CITY           SKY/WX    TMP DP  RH WIND       PRES   REMARKS
BATESVILLE     PTSUNNY   88  73  62 E3        30.10F HX  96
6HR MIN TEMP:  70; 6HR MAX TEMP:  88;

FLIPPIN        MOSUNNY   90  66  45 S3        30.08F HX  92
6HR MIN TEMP:  66; 6HR MAX TEMP:  90;

MTN HOME       MOSUNNY   88  70  55 VRB6      30.10F HX  93
6HR MIN TEMP:  68; 6HR MAX TEMP:  88;

$$

ARZ040-041-011900-
WEST CENTRAL ARKANSAS

CITY           SKY/WX    TMP DP  RH WIND       PRES   REMARKS
MENA           MOSUNNY   90  63  40 S7        30.09F HX  90
MOUNT IDA      SUNNY     90  62  39 VRB3      30.07F HX  90
6HR MIN TEMP:  65; 6HR MAX TEMP:  91;

$$

ARZ009-017-025-026-028-011900-
NORTHEAST ARKANSAS

CITY           SKY/WX    TMP DP  RH WIND       PRES   REMARKS
JONESBORO      MOSUNNY   87  69  54 SE6       30.10F HX  91
6HR MIN TEMP:  66; 6HR MAX TEMP:  88;

NEWPORT        PTSUNNY   89  73  59 SE8       30.11F HX  96
6HR MIN TEMP:  70; 6HR MAX TEMP:  89;

WALNUT RIDGE   MOSUNNY   88  70  55 SE5       30.10F HX  92
6HR MIN TEMP:  68; 6HR MAX TEMP:  88;

BLYTHEVILLE    MOSUNNY   88  70  55 S6        30.11F HX  93
6HR MIN TEMP:  69; 6HR MAX TEMP:  88;

$$

ARZ022-023-033-042-044-011900-
CENTRAL ARKANSAS

CITY           SKY/WX    TMP DP  RH WIND       PRES   REMARKS
LITTLE ROCK    CLOUDY    88  70  55 NE3       30.08F HX  93
6HR MIN TEMP:  72; 6HR MAX TEMP:  88;

N LITTLE ROCK  CLOUDY    87  72  61 SE5       30.08F HX  93
6HR MIN TEMP:  72; 6HR MAX TEMP:  87;

JACKSONVILLE   CLOUDY    88  69  53 E3        30.08F HX  92
6HR MIN TEMP:  69; 6HR MAX TEMP:  88;

SEARCY         CLOUDY    91  72  53 SE6       30.10F HX  98
6HR MIN TEMP:  70; 6HR MAX TEMP:  91;

HOT SPRINGS    MOSUNNY   87  65  47 VRB5      30.09F HX  89
6HR MIN TEMP:  68; 6HR MAX TEMP:  88;

RUSSELLVILLE   SUNNY     89  66  46 SE5       30.07F HX  91
6HR MIN TEMP:  67; 6HR MAX TEMP:  90;

$$

ARZ036-011900-
EAST ARKANSAS

CITY           SKY/WX    TMP DP  RH WIND       PRES   REMARKS
WEST MEMPHIS   MOSUNNY   88  71  57 SE3       30.09F HX  94
6HR MIN TEMP:  71; 6HR MAX TEMP:  88;

$$

ARZ050-053-066-070-073-011900-
SOUTHWEST ARKANSAS

CITY           SKY/WX    TMP DP  RH WIND       PRES   REMARKS
ARKADELPHIA    FAIR      88  72  58 N3        30.08F HX  94
6HR MIN TEMP:  66; 6HR MAX TEMP:  87;

CAMDEN         CLOUDY    88  68  51 CALM      30.08F HX  91
TEXARKANA      PTSUNNY   87  67  51 VRB3      30.07F HX  90
6HR MIN TEMP:  69; 6HR MAX TEMP:  87;

EL DORADO      CLOUDY    86  65  49 VRB3      30.08F HX  88
6HR MIN TEMP:  69; 6HR MAX TEMP:  86;

DE QUEEN       SUNNY     89  66  46 S10       30.05F HX  91
6HR MIN TEMP:  64; 6HR MAX TEMP:  89;

$$

ARZ056-057-069-011900-
SOUTHEAST ARKANSAS

CITY           SKY/WX    TMP DP  RH WIND       PRES   REMARKS
PINE BLUFF       N/A     88  64  44 CALM      30.08F HX  89
6HR MIN TEMP:  71; 6HR MAX TEMP:  88;

STUTTGART      CLOUDY    88  68  51 W3        30.08F HX  91
6HR MIN TEMP:  73; 6HR MAX TEMP:  90;

MONTICELLO     CLOUDY    90  65  43 CALM      30.08F HX  92
6HR MIN TEMP:  70; 6HR MAX TEMP:  92;


$$





USA.gov is the U.S. government's official web portal to all federal, state and local government web resources and services.